Location: Bronnegerveen
(52.9548°N, 6.8388°E)
Time: 01:20:52
(UTC+00:00)

H-2A R/B - Pass Details

Date: 15 June 2025
Orbit: 492 x 572 km, 98.2° (Epoch: 06 July)

Event Time Altitude Azimuth Distance (km) Brightness Sun altitude
Exits shadow 01:06:32 17° 213° (SSW) 1,342 3.7 -11.1°
Maximum altitude 01:08:42 29° 263° (W) 946 3.3 -11.0°
Drops below altitude 10° 01:11:55 10° 325° (NW) 1,701 5.3 -10.8°
Sets 01:14:12 0° 337° (NNW) 2,589 6.5 -10.6°
